Back to catalog

STARLINK-38232

AliveCommunicationsSSO
NORAD 100260·PAYLOAD·🇺🇸 United States

Launched Aug 8, 2026 from Vandenberg Space Force Base

Loading…

Next Passes (next 24 hours)

TLE

FreshSource: Space-Track

Epoch: Sep 14, 2026, 15:08 UTC

1 A0260U 26181Q   26257.63121265  .00162995  00000-0  10723-2 0  9991
2 A0260  97.2832 300.8919 0002002  77.3819 282.7670 15.75203053  7033

Track STARLINK-38232 in real time with AllMySat

Download on the App Store